STARLINK-35649, 66125

Orbit data source: Space-Track

STARLINK-35649, 66125 is a payload satellite owned by SpaceX/Seattle (US) in LEO that was launched on Wed, 22 Oct 2025 UTC via an FALCON 9 launch vehicle from the Air Force Western Test Range (AFWTR). Payload-class satellites include a variety of spacecraft equipped with specific instruments for various scientific and technological missions. These include communications satellites like Starlink; space stations such as the ISS; scientific satellites like the Hubble; Earth observation satellites from companies like Planet Labs, Umbra, and HawkEye 360; GPS; miniature CubeSats for education and research; and military/defense satellites.

Loading next visibility...
Identifier
66125, 2025-237M
Orbit
LEO
Country
Flag of USUS
Related business
Manufacturer
SpaceX/Seattle
Mission
Operational Commercial Communications
Bus & Motor
STARLINK V2MO, Unknown motor
Mass
575 kg wet, ~530 kg dry
Launch date (UTC)
2025-10-22 (4 months ago)
Launch vehicle
FALCON 9
Launch site
Air Force Western Test Range (AFWTR)
Object type
Payload
Rocket body
Debris
Shape & HBR
Box + 2 Pan, 17.7 m
Radar Cross Section
36.964 m²

Expand to show TLE details & history
Last TLE update: 20 hours ago

TLE from 20 hours ago
0 STARLINK-35649
1 66125U 25237M   26061.29951905  .00036472  00000-0  12374-2 0  9995
2 66125  53.1602  73.6244 0001635  47.3348 312.7791 15.30203432 21487
Epoch: 2026-03-02T07:11Z
TLE epoch observation values (Epoch: 2026-03-02T07:11:18.445Z)
Latitude
0.00001°
Longitude
165.70263°
Altitude
475.344 km
Speed
7.63 km/s
True Right ascension
04h 54m 29s
True Declination
0° 00' 00"
Sunlit
Object was in daylight at epoch
Visualization orbit readout
Latitude
Unknown
Longitude
Unknown
Altitude
Unknown
Speed
Unknown
Apparent Right ascension
Unknown
Apparent Declination
Unknown
Sunlit
N/A
Visualization observer readout
Local Sidereal Time
07:01:45
Azimuth
Unknown
Elevation
Unknown
Doppler factor
Unknown
Orbital elements
Apogee altitude
476.582 km
Perigee altitude
474.341 km
Semi-major axis
6,853.598 km
Eccentricity
0.00016
Inclination
53.1602°
RAAN
73.6244°
Arg. of periapsis
47.3348°
True anomaly
312.76535°
Mean anomaly
312.7791°
Eccentric anomaly
312.77222°
Mean motion
3.8253 °/min
Orbital period
94.11 mins
BSTAR
0.0012374
Loading maneuver chart data...
Computing Atmospheric mass density...
Loading historical data...
Loading historical data...
Loading historical data...
Loading historical data...
Loading historical data...
Loading historical data...
Loading historical data...

Documentation

Showing up to 5 results
|